| time (UTC) | temp F | wind direction | speed knots | gust knots | rain 1hr in | rain 24hr in | rain mn in | humidity % | barometer mb |
| 20260504081009 | 61 | 334 | 7.8 | 21.7 | 0.00 | 0.01 | 0.01 | 68 | 1008.6 |
| 20260504050009 | 67 | 326 | 9.6 | 19.1 | 0.00 | 0.07 | 0.01 | 53 | 1007.9 |
| 20260504045009 | 68 | 333 | 11.3 | 17.4 | 0.00 | 0.07 | 0.01 | 52 | 1007.8 |
| 20260504044009 | 68 | 350 | 10.4 | 18.2 | 0.00 | 0.07 | 0.01 | 53 | 1007.8 |
| 20260504043009 | 67 | 332 | 8.7 | 15.6 | 0.00 | 0.07 | 0.01 | 54 | 1007.7 |
| 20260504042010 | 67 | 337 | 7.8 | 17.4 | 0.00 | 0.07 | 0.01 | 54 | 1007.7 |
| 20260504041009 | 66 | 339 | 7.8 | 14.8 | 0.00 | 0.07 | 0.01 | 55 | 1007.8 |
| 20260504040008 | 66 | 336 | 7.8 | 19.1 | 0.00 | 0.07 | 0.01 | 54 | 1007.9 |
| 20260504035009 | 66 | 330 | 6.1 | 17.4 | 0.00 | 0.07 | 0.01 | 56 | 1008.0 |
| 20260504034009 | 66 | 339 | 8.7 | 18.2 | 0.00 | 0.07 | 0.01 | 55 | 1008.0 |
| 20260504033009 | 66 | 333 | 9.6 | 17.4 | 0.00 | 0.07 | 0.01 | 55 | 1008.1 |
| 20260504032009 | 67 | 331 | 10.4 | 18.2 | 0.00 | 0.07 | 0.01 | 54 | 1008.2 |
| 20260504031009 | 67 | 337 | 8.7 | 18.2 | 0.00 | 0.07 | 0.01 | 57 | 1008.3 |
| 20260504030009 | 66 | 333 | 7.8 | 18.2 | 0.00 | 0.07 | 0.01 | 58 | 1008.5 |
| 20260504025009 | 65 | 346 | 10.4 | 20.0 | 0.00 | 0.07 | 0.01 | 59 | 1008.7 |
| 20260504024009 | 66 | 321 | 10.4 | 19.1 | 0.00 | 0.07 | 0.01 | 57 | 1008.6 |
| 20260504023009 | 66 | 336 | 5.2 | 21.7 | 0.00 | 0.07 | 0.01 | 58 | 1008.9 |
| 20260504022009 | 66 | 327 | 8.7 | 20.0 | 0.00 | 0.08 | 0.01 | 58 | 1008.9 |
| 20260504021010 | 67 | 321 | 6.1 | 18.2 | 0.01 | 0.09 | 0.01 | 59 | 1009.0 |
| 20260504020009 | 66 | 325 | 7.8 | 20.0 | 0.01 | 0.15 | 0.01 | 60 | 1009.1 |
| 20260504015009 | 66 | 342 | 8.7 | 18.2 | 0.01 | 0.19 | 0.01 | 60 | 1009.1 |
| 20260504014009 | 66 | 347 | 9.6 | 20.0 | 0.01 | 0.24 | 0.01 | 60 | 1009.3 |
| 20260504013009 | 66 | 339 | 9.6 | 20.0 | 0.01 | 0.27 | 0.01 | 60 | 1009.5 |
| 20260504012009 | 66 | 339 | 8.7 | 21.7 | 0.01 | 0.30 | 0.01 | 61 | 1009.6 |
| 20260504011009 | 65 | 323 | 8.7 | 14.8 | 0.00 | 0.29 | 0.00 | 62 | 1009.8 |
| 20260504010009 | 65 | 343 | 10.4 | 17.4 | 0.00 | 0.30 | 0.00 | 62 | 1009.8 |
| 20260504005009 | 65 | 342 | 10.4 | 17.4 | 0.00 | 0.33 | 0.00 | 62 | 1009.9 |
| 20260504004009 | 64 | 346 | 8.7 | 15.6 | 0.00 | 0.34 | 0.00 | 63 | 1009.9 |
| 20260504003009 | 64 | 328 | 7.8 | 15.6 | 0.00 | 0.34 | 0.00 | 63 | 1009.9 |
| 20260504002009 | 64 | 315 | 9.6 | 17.4 | 0.00 | 0.34 | 0.00 | 62 | 1010.0 |
| 20260504001009 | 64 | 348 | 7.0 | 13.9 | 0.00 | 0.34 | 0.00 | 63 | 1010.0 |
| 20260504000009 | 64 | 0 | 6.1 | 13.9 | 0.00 | 0.34 | 0.00 | 65 | 1009.9 |
| 20260503235009 | 63 | 355 | 7.0 | 14.8 | 0.00 | 0.34 | 0.00 | 66 | 1010.0 |
| 20260503234009 | 63 | 19 | 4.3 | 10.4 | 0.00 | 0.34 | 0.00 | 67 | 1010.2 |
| 20260503233009 | 62 | 29 | 4.3 | 7.8 | 0.00 | 0.34 | 0.00 | 70 | 1010.2 |
| 20260503232011 | 61 | 28 | 3.5 | 7.0 | 0.00 | 0.34 | 0.00 | 71 | 1010.3 |
| 20260503231009 | 60 | 15 | 2.6 | 4.3 | 0.00 | 0.34 | 0.00 | 72 | 1010.3 |
| 20260503230009 | 59 | 7 | 2.6 | 6.1 | 0.00 | 0.34 | 0.00 | 74 | 1010.4 |
| 20260503225009 | 58 | 5 | 2.6 | 5.2 | 0.00 | 0.34 | 0.00 | 76 | 1010.5 |
| 20260503224009 | 57 | 5 | 2.6 | 5.2 | 0.00 | 0.34 | 0.00 | 79 | 1010.5 |
| 20260503223009 | 56 | 21 | 2.6 | 6.1 | 0.00 | 0.34 | 0.00 | 81 | 1010.5 |
| 20260503222009 | 54 | 17 | 2.6 | 6.1 | 0.00 | 0.34 | 0.00 | 83 | 1010.6 |
| 20260503221009 | 53 | 24 | 2.6 | 7.0 | 0.00 | 0.34 | 0.00 | 85 | 1010.6 |
| 20260503220009 | 53 | 16 | 2.6 | 7.0 | 0.00 | 0.34 | 0.00 | 85 | 1010.6 |
| 20260503215009 | 52 | 16 | 1.7 | 2.6 | 0.00 | 0.34 | 0.00 | 85 | 1010.5 |
| 20260503214009 | 52 | 16 | 1.7 | 6.1 | 0.00 | 0.34 | 0.00 | 86 | 1010.4 |
| 20260503213009 | 52 | 17 | 2.6 | 6.1 | 0.00 | 0.34 | 0.00 | 86 | 1010.4 |
| 20260503212009 | 51 | 18 | 2.6 | 6.1 | 0.00 | 0.34 | 0.00 | 86 | 1010.4 |
| 20260503211009 | 51 | 14 | 1.7 | 4.3 | 0.00 | 0.34 | 0.00 | 86 | 1010.4 |
| 20260503210009 | 51 | 13 | 1.7 | 4.3 | 0.00 | 0.34 | 0.00 | 86 | 1010.4 |
| 20260503205009 | 51 | 15 | 1.7 | 4.3 | 0.00 | 0.34 | 0.00 | 85 | 1010.2 |
| 20260503204009 | 52 | 19 | 1.7 | 4.3 | 0.00 | 0.34 | 0.00 | 85 | 1010.0 |
| 20260503203009 | 52 | 18 | 2.6 | 4.3 | 0.00 | 0.34 | 0.00 | 85 | 1010.0 |
| 20260503202009 | 53 | 17 | 2.6 | 4.3 | 0.00 | 0.34 | 0.00 | 84 | 1009.9 |
| 20260503201009 | 53 | 16 | 2.6 | 6.1 | 0.00 | 0.34 | 0.00 | 84 | 1010.0 |
| 20260503200009 | 54 | 9 | 2.6 | 7.0 | 0.00 | 0.34 | 0.00 | 84 | 1010.0 |
| 20260503195009 | 54 | 11 | 5.2 | 8.7 | 0.00 | 0.34 | 0.00 | 85 | 1010.0 |
| 20260503194009 | 54 | 5 | 3.5 | 7.8 | 0.00 | 0.34 | 0.00 | 85 | 1010.1 |
| 20260503193009 | 54 | 0 | 3.5 | 7.8 | 0.00 | 0.34 | 0.00 | 85 | 1010.2 |
| 20260503192009 | 54 | 354 | 2.6 | 7.0 | 0.00 | 0.34 | 0.00 | 84 | 1010.3 |
| 20260503191009 | 55 | 349 | 2.6 | 5.2 | 0.00 | 0.34 | 0.00 | 84 | 1010.4 |
| 20260503190009 | 55 | 352 | 3.5 | 7.0 | 0.00 | 0.34 | 0.00 | 84 | 1010.5 |
| 20260503185009 | 55 | 354 | 3.5 | 7.8 | 0.00 | 0.34 | 0.00 | 84 | 1010.5 |
| 20260503184009 | 55 | 0 | 5.2 | 8.7 | 0.00 | 0.34 | 0.00 | 84 | 1010.5 |
| 20260503183009 | 55 | 358 | 5.2 | 10.4 | 0.00 | 0.34 | 0.00 | 84 | 1010.6 |
| 20260503182009 | 55 | 0 | 4.3 | 7.8 | 0.00 | 0.34 | 0.00 | 84 | 1010.7 |
| 20260503181010 | 55 | 341 | 3.5 | 7.0 | 0.00 | 0.34 | 0.00 | 84 | 1010.8 |
| 20260503180009 | 55 | 350 | 4.3 | 8.7 | 0.00 | 0.34 | 0.00 | 84 | 1010.9 |
| 20260503175010 | 55 | 358 | 3.5 | 7.8 | 0.00 | 0.34 | 0.00 | 84 | 1010.9 |
| 20260503174009 | 55 | 350 | 4.3 | 8.7 | 0.00 | 0.34 | 0.00 | 84 | 1010.8 |
| 20260503173009 | 55 | 350 | 3.5 | 8.7 | 0.00 | 0.34 | 0.00 | 84 | 1010.9 |
| 20260503172010 | 55 | 356 | 3.5 | 7.8 | 0.00 | 0.34 | 0.00 | 84 | 1010.9 |
| 20260503171009 | 55 | 359 | 2.6 | 7.8 | 0.00 | 0.34 | 0.00 | 85 | 1010.9 |
| 20260503151010 | 56 | 28 | 1.7 | 4.3 | 0.00 | 0.34 | 0.00 | 84 | 1011.2 |
| 20260503131009 | 57 | 11 | 1.7 | 4.3 | 0.00 | 0.34 | 0.34 | 83 | 1011.5 |